Time,TemperatureF,DewpointF,PressureIn,WindDirection,WindDirectionDegrees,WindSpeedMPH,WindSpeedGustMPH,Humidity,HourlyPrecipIn,Conditions,Clouds,dailyrainin,SoftwareType,DateUTC
2013-04-30 00:02:00,65.1,56.6,29.74,SSE,165,7.2,10.5,74,0.00,,,0.00,WSDL version 423,2013-04-30 05:02:00,
2013-04-30 00:07:00,65.1,56.9,29.74,South,169,6.4,12.1,75,0.00,,,0.00,WSDL version 423,2013-04-30 05:07:00,
2013-04-30 00:12:00,65.1,56.9,29.74,SSE,154,6.7,12.1,75,0.00,,,0.00,WSDL version 423,2013-04-30 05:12:00,
2013-04-30 00:17:00,65.1,57.0,29.74,SSE,165,7.7,11.0,75,0.00,,,0.00,WSDL version 423,2013-04-30 05:17:00,
2013-04-30 00:22:00,64.9,56.8,29.74,South,173,6.5,10.7,75,0.00,,,0.00,WSDL version 423,2013-04-30 05:22:00,
2013-04-30 00:27:00,64.8,56.7,29.74,SSW,197,8.7,15.2,75,0.00,,,0.00,WSDL version 423,2013-04-30 05:27:00,
2013-04-30 00:32:00,64.9,56.8,29.74,South,184,7.2,15.2,75,0.00,,,0.00,WSDL version 423,2013-04-30 05:32:00,
2013-04-30 00:37:00,64.8,56.8,29.74,South,176,10.1,13.2,76,0.00,,,0.00,WSDL version 423,2013-04-30 05:37:00,
2013-04-30 00:42:00,64.8,57.0,29.74,South,169,10.2,13.2,76,0.00,,,0.00,WSDL version 423,2013-04-30 05:42:00,
2013-04-30 00:47:00,64.8,57.0,29.74,South,177,6.7,12.8,76,0.00,,,0.00,WSDL version 423,2013-04-30 05:47:00,
2013-04-30 00:52:00,64.6,56.9,29.74,SSE,158,6.3,12.5,76,0.00,,,0.00,WSDL version 423,2013-04-30 05:52:00,
2013-04-30 00:57:00,64.5,56.8,29.71,South,169,7.4,12.5,76,0.00,,,0.00,WSDL version 423,2013-04-30 05:57:00,
2013-04-30 01:02:00,64.4,57.0,29.71,South,180,8.5,13.2,77,0.00,,,0.00,WSDL version 423,2013-04-30 06:02:00,
2013-04-30 01:07:00,64.4,57.2,29.71,SSE,162,8.2,13.2,78,0.00,,,0.00,WSDL version 423,2013-04-30 06:07:00,
2013-04-30 01:12:00,64.4,57.4,29.71,South,186,9.0,12.8,78,0.00,,,0.00,WSDL version 423,2013-04-30 06:12:00,
2013-04-30 01:17:00,64.3,57.5,29.71,SSE,161,9.1,14.3,79,0.00,,,0.00,WSDL version 423,2013-04-30 06:17:00,
2013-04-30 01:22:00,64.3,57.8,29.71,South,180,7.4,14.3,79,0.00,,,0.00,WSDL version 423,2013-04-30 06:22:00,
2013-04-30 01:27:00,64.3,58.0,29.71,SSW,197,9.8,14.8,80,0.00,,,0.00,WSDL version 423,2013-04-30 06:27:00,
2013-04-30 01:32:00,64.3,58.2,29.71,South,171,9.9,17.4,81,0.00,,,0.00,WSDL version 423,2013-04-30 06:32:00,
2013-04-30 01:37:00,64.2,58.3,29.71,South,176,9.5,17.4,81,0.00,,,0.00,WSDL version 423,2013-04-30 06:37:00,
2013-04-30 01:42:00,64.1,58.1,29.71,South,170,8.4,14.1,81,0.00,,,0.00,WSDL version 423,2013-04-30 06:42:00,
2013-04-30 01:47:00,64.0,58.4,29.71,SSW,196,9.8,12.8,82,0.00,,,0.00,WSDL version 423,2013-04-30 06:47:00,
2013-04-30 01:52:00,64.0,58.5,29.71,South,173,9.5,17.2,83,0.00,,,0.00,WSDL version 423,2013-04-30 06:52:00,
2013-04-30 01:57:00,63.9,58.6,29.71,South,183,9.7,17.2,83,0.00,,,0.00,WSDL version 423,2013-04-30 06:57:00,
2013-04-30 02:02:00,63.9,58.6,29.71,South,174,9.3,14.3,83,0.00,,,0.00,WSDL version 423,2013-04-30 07:02:00,
2013-04-30 02:07:00,63.9,58.9,29.71,South,186,8.8,15.4,84,0.00,,,0.00,WSDL version 423,2013-04-30 07:07:00,
2013-04-30 02:12:00,63.8,58.8,29.74,South,183,8.5,15.4,84,0.00,,,0.00,WSDL version 423,2013-04-30 07:12:00,
2013-04-30 02:17:00,63.7,58.9,29.74,South,177,9.6,16.6,85,0.00,,,0.00,WSDL version 423,2013-04-30 07:17:00,
2013-04-30 02:22:00,63.5,58.9,29.74,South,180,7.8,16.6,85,0.00,,,0.00,WSDL version 423,2013-04-30 07:22:00,
2013-04-30 02:27:00,63.5,58.9,29.71,SSE,158,7.9,12.1,85,0.00,,,0.00,WSDL version 423,2013-04-30 07:27:00,
2013-04-30 02:32:00,63.5,59.1,29.71,South,189,9.9,14.5,86,0.00,,,0.00,WSDL version 423,2013-04-30 07:32:00,
2013-04-30 02:37:00,63.5,59.2,29.71,South,180,8.5,17.7,86,0.00,,,0.00,WSDL version 423,2013-04-30 07:37:00,
2013-04-30 02:42:00,63.5,59.2,29.71,South,185,9.0,17.7,86,0.00,,,0.00,WSDL version 423,2013-04-30 07:42:00,
2013-04-30 02:47:00,63.4,59.4,29.71,SSW,194,8.9,13.9,87,0.00,,,0.00,WSDL version 423,2013-04-30 07:47:00,
2013-04-30 02:52:00,63.3,59.4,29.71,South,186,9.6,16.6,87,0.00,,,0.00,WSDL version 423,2013-04-30 07:52:00,
2013-04-30 02:57:00,63.3,59.4,29.71,South,183,9.1,18.1,87,0.00,,,0.00,WSDL version 423,2013-04-30 07:57:00,
2013-04-30 03:02:00,63.3,59.4,29.71,South,176,8.8,18.1,87,0.00,,,0.00,WSDL version 423,2013-04-30 08:02:00,
2013-04-30 03:07:00,63.3,59.6,29.71,South,185,9.3,19.5,88,0.00,,,0.00,WSDL version 423,2013-04-30 08:07:00,
2013-04-30 03:12:00,63.3,59.7,29.71,South,185,9.1,19.5,88,0.00,,,0.00,WSDL version 423,2013-04-30 08:12:00,
2013-04-30 03:17:00,63.3,59.7,29.71,South,174,10.3,16.3,88,0.00,,,0.00,WSDL version 423,2013-04-30 08:17:00,
2013-04-30 03:22:00,63.2,59.6,29.71,South,186,11.0,16.3,88,0.00,,,0.00,WSDL version 423,2013-04-30 08:22:00,
2013-04-30 03:27:00,63.1,59.5,29.71,South,173,10.6,16.6,88,0.00,,,0.00,WSDL version 423,2013-04-30 08:27:00,
2013-04-30 03:32:00,63.1,59.5,29.71,South,169,7.4,16.6,88,0.00,,,0.00,WSDL version 423,2013-04-30 08:32:00,
2013-04-30 03:37:00,63.1,59.8,29.71,SSE,167,10.0,12.3,89,0.00,,,0.00,WSDL version 423,2013-04-30 08:37:00,
2013-04-30 03:42:00,63.0,59.7,29.71,SSW,203,9.8,15.7,89,0.00,,,0.00,WSDL version 423,2013-04-30 08:42:00,
2013-04-30 03:47:00,63.1,59.8,29.71,South,191,6.4,15.7,89,0.00,,,0.00,WSDL version 423,2013-04-30 08:47:00,
2013-04-30 03:52:00,63.0,59.7,29.71,South,170,8.2,13.0,89,0.00,,,0.00,WSDL version 423,2013-04-30 08:52:00,
2013-04-30 03:57:00,63.0,60.0,29.74,South,171,9.3,13.4,90,0.00,,,0.00,WSDL version 423,2013-04-30 08:57:00,
2013-04-30 04:02:00,63.0,60.0,29.74,South,173,10.7,15.2,90,0.00,,,0.00,WSDL version 423,2013-04-30 09:02:00,
2013-04-30 04:07:00,62.8,59.8,29.74,South,188,9.0,15.2,90,0.00,,,0.00,WSDL version 423,2013-04-30 09:07:00,
2013-04-30 04:12:00,62.8,59.8,29.74,SSE,165,7.6,14.3,90,0.00,,,0.00,WSDL version 423,2013-04-30 09:12:00,
2013-04-30 04:17:00,62.8,59.9,29.74,South,188,8.1,13.2,91,0.00,,,0.00,WSDL version 423,2013-04-30 09:17:00,
2013-04-30 04:22:00,62.8,60.1,29.74,South,174,9.8,17.0,91,0.00,,,0.00,WSDL version 423,2013-04-30 09:22:00,
2013-04-30 04:27:00,62.6,60.0,29.74,South,174,6.9,17.0,91,0.00,,,0.00,WSDL version 423,2013-04-30 09:27:00,
2013-04-30 04:32:00,62.6,59.9,29.74,South,180,9.8,15.2,91,0.00,,,0.00,WSDL version 423,2013-04-30 09:32:00,
2013-04-30 04:37:00,62.6,59.9,29.74,SSE,165,8.2,14.5,91,0.00,,,0.00,WSDL version 423,2013-04-30 09:37:00,
2013-04-30 04:42:00,62.6,60.2,29.74,South,186,7.2,14.5,92,0.00,,,0.00,WSDL version 423,2013-04-30 09:42:00,
2013-04-30 04:47:00,62.5,60.1,29.74,SSE,163,8.5,13.2,92,0.00,,,0.00,WSDL version 423,2013-04-30 09:47:00,
2013-04-30 04:52:00,62.4,60.1,29.74,South,180,8.8,13.9,92,0.00,,,0.00,WSDL version 423,2013-04-30 09:52:00,
2013-04-30 04:57:00,62.4,60.1,29.74,South,169,7.6,13.9,92,0.00,,,0.00,WSDL version 423,2013-04-30 09:57:00,
2013-04-30 05:02:00,62.4,60.2,29.74,South,173,9.8,15.4,93,0.00,,,0.00,WSDL version 423,2013-04-30 10:02:00,
2013-04-30 05:07:00,62.4,60.3,29.74,South,180,7.8,15.4,93,0.00,,,0.00,WSDL version 423,2013-04-30 10:07:00,
2013-04-30 05:12:00,62.4,60.4,29.74,SSW,198,8.0,13.0,93,0.00,,,0.00,WSDL version 423,2013-04-30 10:12:00,
2013-04-30 05:17:00,62.4,60.4,29.74,South,169,8.7,13.0,93,0.00,,,0.00,WSDL version 423,2013-04-30 10:17:00,
2013-04-30 05:22:00,62.4,60.4,29.74,SSW,198,8.1,12.8,93,0.00,,,0.00,WSDL version 423,2013-04-30 10:22:00,
2013-04-30 05:27:00,62.4,60.4,29.74,South,185,9.4,17.0,93,0.00,,,0.00,WSDL version 423,2013-04-30 10:27:00,
2013-04-30 05:32:00,62.4,60.4,29.74,SSW,194,8.2,17.0,93,0.00,,,0.00,WSDL version 423,2013-04-30 10:32:00,
2013-04-30 05:37:00,62.4,60.4,29.74,South,191,7.3,13.0,93,0.00,,,0.00,WSDL version 423,2013-04-30 10:37:00,
2013-04-30 05:42:00,62.4,60.4,29.77,SSW,194,8.4,13.2,93,0.00,,,0.00,WSDL version 423,2013-04-30 10:42:00,
2013-04-30 05:47:00,62.4,60.4,29.77,South,176,8.3,13.2,93,0.00,,,0.00,WSDL version 423,2013-04-30 10:47:00,
2013-04-30 05:52:00,62.4,60.4,29.77,South,180,8.4,14.5,93,0.00,,,0.00,WSDL version 423,2013-04-30 10:52:00,
2013-04-30 05:57:00,62.4,60.4,29.74,South,184,9.6,14.5,93,0.00,,,0.00,WSDL version 423,2013-04-30 10:57:00,
2013-04-30 06:02:00,62.4,60.4,29.74,SSW,194,7.4,14.3,93,0.00,,,0.00,WSDL version 423,2013-04-30 11:02:00,
2013-04-30 06:07:00,62.4,60.4,29.74,South,185,8.6,14.3,93,0.00,,,0.00,WSDL version 423,2013-04-30 11:07:00,
2013-04-30 06:12:00,62.4,60.2,29.77,SSW,198,7.0,13.2,92,0.00,,,0.00,WSDL version 423,2013-04-30 11:12:00,
2013-04-30 06:17:00,62.4,60.3,29.77,SSE,161,7.9,15.7,93,0.00,,,0.00,WSDL version 423,2013-04-30 11:17:00,
2013-04-30 06:22:00,62.5,60.3,29.77,SSW,196,7.9,15.7,92,0.00,,,0.00,WSDL version 423,2013-04-30 11:22:00,
2013-04-30 06:27:00,62.4,60.1,29.77,SSW,193,7.5,11.9,92,0.00,,,0.00,WSDL version 423,2013-04-30 11:27:00,
2013-04-30 06:32:00,62.4,60.1,29.77,South,174,6.9,12.5,92,0.00,,,0.00,WSDL version 423,2013-04-30 11:32:00,
2013-04-30 06:37:00,62.4,60.1,29.77,South,184,6.3,12.5,92,0.00,,,0.00,WSDL version 423,2013-04-30 11:37:00,
2013-04-30 06:42:00,62.4,60.1,29.77,South,180,5.6,10.7,92,0.00,,,0.00,WSDL version 423,2013-04-30 11:42:00,
2013-04-30 06:47:00,62.5,60.2,29.77,South,176,6.2,9.8,92,0.00,,,0.00,WSDL version 423,2013-04-30 11:47:00,
2013-04-30 06:52:00,62.6,60.2,29.77,SSE,158,7.8,11.0,92,0.00,,,0.00,WSDL version 423,2013-04-30 11:52:00,
2013-04-30 06:57:00,62.6,60.1,29.77,South,191,7.4,11.0,91,0.00,,,0.00,WSDL version 423,2013-04-30 11:57:00,
2013-04-30 07:02:00,62.6,59.9,29.77,SSE,158,8.7,11.0,91,0.00,,,0.00,WSDL version 423,2013-04-30 12:02:00,
2013-04-30 07:07:00,62.6,59.9,29.77,South,191,5.7,13.0,91,0.00,,,0.00,WSDL version 423,2013-04-30 12:07:00,
2013-04-30 07:12:00,62.7,60.0,29.77,SSW,197,6.4,13.0,91,0.00,,,0.00,WSDL version 423,2013-04-30 12:12:00,
2013-04-30 07:17:00,62.8,60.1,29.77,South,184,6.5,11.0,91,0.00,,,0.00,WSDL version 423,2013-04-30 12:17:00,
2013-04-30 07:22:00,63.0,60.3,29.77,South,183,6.8,11.0,91,0.00,,,0.00,WSDL version 423,2013-04-30 12:22:00,
2013-04-30 07:27:00,63.1,60.2,29.80,South,184,6.6,10.5,90,0.00,,,0.00,WSDL version 423,2013-04-30 12:27:00,
2013-04-30 07:32:00,63.6,60.6,29.80,South,180,7.9,9.8,90,0.00,,,0.00,WSDL version 423,2013-04-30 12:32:00,
2013-04-30 07:37:00,64.3,60.9,29.80,South,173,7.2,10.3,88,0.00,,,0.00,WSDL version 423,2013-04-30 12:37:00,
2013-04-30 07:42:00,64.8,60.9,29.77,South,186,7.2,10.7,87,0.00,,,0.00,WSDL version 423,2013-04-30 12:42:00,
2013-04-30 07:47:00,65.4,61.2,29.77,South,191,7.7,10.7,85,0.00,,,0.00,WSDL version 423,2013-04-30 12:47:00,
2013-04-30 07:52:00,65.8,60.8,29.77,SSW,203,6.5,13.4,84,0.00,,,0.00,WSDL version 423,2013-04-30 12:52:00,
2013-04-30 07:57:00,66.4,61.2,29.80,SSW,195,6.0,13.4,83,0.00,,,0.00,WSDL version 423,2013-04-30 12:57:00,
2013-04-30 08:02:00,66.7,60.4,29.80,SSW,203,7.8,9.8,80,0.00,,,0.00,WSDL version 423,2013-04-30 13:02:00,
2013-04-30 08:07:00,67.2,60.7,29.80,South,189,8.2,17.7,77,0.00,,,0.00,WSDL version 423,2013-04-30 13:07:00,
2013-04-30 08:12:00,68.0,61.1,29.80,South,180,5.6,17.7,79,0.00,,,0.00,WSDL version 423,2013-04-30 13:12:00,
2013-04-30 08:17:00,68.4,60.7,29.80,South,180,8.9,13.6,75,0.00,,,0.00,WSDL version 423,2013-04-30 13:17:00,
2013-04-30 08:22:00,68.4,60.1,29.80,SSW,195,7.9,12.8,74,0.00,,,0.00,WSDL version 423,2013-04-30 13:22:00,
2013-04-30 08:27:00,68.9,60.6,29.80,South,180,8.9,12.8,75,0.00,,,0.00,WSDL version 423,2013-04-30 13:27:00,
2013-04-30 08:32:00,69.4,60.6,29.80,South,169,8.4,13.0,73,0.00,,,0.00,WSDL version 423,2013-04-30 13:32:00,
2013-04-30 08:37:00,69.7,60.5,29.80,South,188,7.2,14.1,71,0.00,,,0.00,WSDL version 423,2013-04-30 13:37:00,
2013-04-30 08:42:00,70.2,60.6,29.77,South,185,6.7,14.1,71,0.00,,,0.00,WSDL version 423,2013-04-30 13:42:00,
2013-04-30 08:47:00,70.8,60.9,29.77,SW,219,8.5,11.2,71,0.00,,,0.00,WSDL version 423,2013-04-30 13:47:00,
2013-04-30 08:52:00,71.1,60.4,29.77,SSW,208,6.0,11.2,69,0.00,,,0.00,WSDL version 423,2013-04-30 13:52:00,
2013-04-30 08:57:00,71.2,60.5,29.80,SSW,207,8.8,13.4,69,0.00,,,0.00,WSDL version 423,2013-04-30 13:57:00,
2013-04-30 09:02:00,71.5,60.1,29.80,SW,216,9.0,15.7,66,0.00,,,0.00,WSDL version 423,2013-04-30 14:02:00,
2013-04-30 09:07:00,71.9,59.7,29.80,SSW,205,8.0,15.7,65,0.00,,,0.00,WSDL version 423,2013-04-30 14:07:00,
2013-04-30 09:12:00,72.5,60.1,29.77,SSW,195,8.6,14.5,63,0.00,,,0.00,WSDL version 423,2013-04-30 14:12:00,
2013-04-30 09:17:00,72.8,59.5,29.77,South,188,10.4,17.4,62,0.00,,,0.00,WSDL version 423,2013-04-30 14:17:00,
2013-04-30 09:22:00,73.2,60.1,29.77,South,191,8.7,17.4,62,0.00,,,0.00,WSDL version 423,2013-04-30 14:22:00,
2013-04-30 09:27:00,73.6,59.8,29.77,SSW,203,7.6,14.8,61,0.00,,,0.00,WSDL version 423,2013-04-30 14:27:00,
2013-04-30 09:32:00,73.8,59.9,29.77,South,186,8.4,14.8,62,0.00,,,0.00,WSDL version 423,2013-04-30 14:32:00,
2013-04-30 09:37:00,74.3,60.3,29.77,SSW,203,9.4,14.8,60,0.00,,,0.00,WSDL version 423,2013-04-30 14:37:00,
2013-04-30 09:42:00,74.6,59.9,29.80,SW,218,7.2,14.8,59,0.00,,,0.00,WSDL version 423,2013-04-30 14:42:00,
2013-04-30 09:47:00,74.8,60.1,29.80,SSW,199,9.1,13.4,60,0.00,,,0.00,WSDL version 423,2013-04-30 14:47:00,
2013-04-30 09:52:00,75.3,60.1,29.80,SSW,203,8.7,14.3,58,0.00,,,0.00,WSDL version 423,2013-04-30 14:52:00,
2013-04-30 09:57:00,75.8,60.1,29.77,South,180,10.3,14.3,58,0.00,,,0.00,WSDL version 423,2013-04-30 14:57:00,
2013-04-30 10:02:00,76.1,60.2,29.77,SSW,198,8.1,13.4,58,0.00,,,0.00,WSDL version 423,2013-04-30 15:02:00,
2013-04-30 10:07:00,76.3,60.2,29.77,SSW,199,7.6,12.5,58,0.00,,,0.00,WSDL version 423,2013-04-30 15:07:00,
2013-04-30 10:12:00,76.6,59.9,29.80,SW,214,7.6,12.5,55,0.00,,,0.00,WSDL version 423,2013-04-30 15:12:00,
2013-04-30 10:17:00,76.7,59.3,29.80,SSW,196,7.6,12.1,56,0.00,,,0.00,WSDL version 423,2013-04-30 15:17:00,
2013-04-30 10:22:00,77.0,59.2,29.80,SSW,203,10.3,13.6,54,0.00,,,0.00,WSDL version 423,2013-04-30 15:22:00,
2013-04-30 10:27:00,77.4,59.5,29.80,SSW,195,6.8,17.7,54,0.00,,,0.00,WSDL version 423,2013-04-30 15:27:00,
2013-04-30 10:32:00,77.7,59.1,29.80,South,176,8.9,17.7,52,0.00,,,0.00,WSDL version 423,2013-04-30 15:32:00,
2013-04-30 10:37:00,78.1,59.5,29.80,SSW,207,6.5,12.8,51,0.00,,,0.00,WSDL version 423,2013-04-30 15:37:00,
2013-04-30 10:42:00,78.4,59.1,29.80,SSW,197,8.5,17.0,52,0.00,,,0.00,WSDL version 423,2013-04-30 15:42:00,
2013-04-30 10:47:00,78.6,58.8,29.80,SSW,203,8.2,17.0,51,0.00,,,0.00,WSDL version 423,2013-04-30 15:47:00,
2013-04-30 10:52:00,78.9,59.4,29.80,SSW,212,8.7,13.2,51,0.00,,,0.00,WSDL version 423,2013-04-30 15:52:00,
2013-04-30 10:57:00,79.0,59.0,29.80,SSW,203,7.9,10.7,50,0.00,,,0.00,WSDL version 423,2013-04-30 15:57:00,
2013-04-30 11:02:00,79.2,59.7,29.80,SSW,212,8.8,13.0,51,0.00,,,0.00,WSDL version 423,2013-04-30 16:02:00,
2013-04-30 11:07:00,79.4,59.7,29.80,SSW,199,6.7,13.0,51,0.00,,,0.00,WSDL version 423,2013-04-30 16:07:00,
2013-04-30 11:12:00,79.8,59.3,29.80,South,173,7.5,12.1,49,0.00,,,0.00,WSDL version 423,2013-04-30 16:12:00,
2013-04-30 11:17:00,80.1,59.2,29.80,South,189,7.5,11.9,50,0.00,,,0.00,WSDL version 423,2013-04-30 16:17:00,
2013-04-30 11:22:00,80.3,59.3,29.80,SSW,199,7.3,12.5,47,0.00,,,0.00,WSDL version 423,2013-04-30 16:22:00,
2013-04-30 11:27:00,80.8,59.3,29.80,South,171,8.5,15.4,48,0.00,,,0.00,WSDL version 423,2013-04-30 16:27:00,
2013-04-30 11:32:00,81.0,59.1,29.80,SW,219,7.1,15.4,48,0.00,,,0.00,WSDL version 423,2013-04-30 16:32:00,
2013-04-30 11:37:00,80.9,58.9,29.80,SSW,198,9.1,11.9,47,0.00,,,0.00,WSDL version 423,2013-04-30 16:37:00,
2013-04-30 11:42:00,81.4,59.6,29.80,SSW,207,8.5,12.8,48,0.00,,,0.00,WSDL version 423,2013-04-30 16:42:00,
2013-04-30 11:47:00,81.7,59.5,29.80,SSW,203,8.5,12.8,46,0.00,,,0.00,WSDL version 423,2013-04-30 16:47:00,
2013-04-30 11:52:00,81.8,59.2,29.80,SSW,196,8.3,13.2,46,0.00,,,0.00,WSDL version 423,2013-04-30 16:52:00,
2013-04-30 11:57:00,81.9,59.0,29.80,South,183,6.8,13.2,46,0.00,,,0.00,WSDL version 423,2013-04-30 16:57:00,
2013-04-30 12:02:00,81.7,59.3,29.80,WSW,240,4.9,11.4,47,0.00,,,0.00,WSDL version 423,2013-04-30 17:02:00,
2013-04-30 12:07:00,81.9,59.2,29.80,South,191,8.1,14.5,45,0.00,,,0.00,WSDL version 423,2013-04-30 17:07:00,
2013-04-30 12:12:00,82.1,58.7,29.80,SSW,203,7.3,14.5,46,0.00,,,0.00,WSDL version 423,2013-04-30 17:12:00,
2013-04-30 12:17:00,82.2,58.8,29.80,South,169,7.5,11.9,45,0.00,,,0.00,WSDL version 423,2013-04-30 17:17:00,
2013-04-30 12:22:00,82.3,58.7,29.80,SSW,195,12.5,13.4,45,0.00,,,0.00,WSDL version 423,2013-04-30 17:22:00,
2013-04-30 12:27:00,82.1,59.1,29.80,South,188,6.7,13.4,46,0.00,,,0.00,WSDL version 423,2013-04-30 17:27:00,
2013-04-30 12:32:00,82.4,58.5,29.80,South,189,10.0,10.5,43,0.00,,,0.00,WSDL version 423,2013-04-30 17:32:00,
2013-04-30 12:37:00,82.5,59.0,29.80,SSW,195,6.4,10.5,46,0.00,,,0.00,WSDL version 423,2013-04-30 17:37:00,
2013-04-30 12:42:00,82.6,58.5,29.80,South,180,10.2,16.8,43,0.00,,,0.00,WSDL version 423,2013-04-30 17:42:00,
2013-04-30 12:47:00,82.6,57.8,29.80,SSW,199,8.9,16.8,42,0.00,,,0.00,WSDL version 423,2013-04-30 17:47:00,
2013-04-30 12:52:00,82.8,59.2,29.80,SSW,203,7.0,19.9,45,0.00,,,0.00,WSDL version 423,2013-04-30 17:52:00,
2013-04-30 12:57:00,82.8,58.5,29.80,SSW,195,8.7,19.9,43,0.00,,,0.00,WSDL version 423,2013-04-30 17:57:00,
2013-04-30 13:02:00,83.2,59.3,29.80,SW,214,7.4,17.2,44,0.00,,,0.00,WSDL version 423,2013-04-30 18:02:00,
2013-04-30 13:07:00,83.3,57.1,29.80,SSW,195,10.0,13.0,40,0.00,,,0.00,WSDL version 423,2013-04-30 18:07:00,
2013-04-30 13:12:00,83.4,56.7,29.80,South,185,9.9,15.9,40,0.00,,,0.00,WSDL version 423,2013-04-30 18:12:00,
2013-04-30 13:17:00,83.6,58.2,29.80,South,188,5.7,15.9,44,0.00,,,0.00,WSDL version 423,2013-04-30 18:17:00,
2013-04-30 13:22:00,83.7,58.5,29.80,SSW,198,7.8,11.0,42,0.00,,,0.00,WSDL version 423,2013-04-30 18:22:00,
2013-04-30 13:27:00,83.6,55.4,29.80,SSW,198,11.7,19.2,38,0.00,,,0.00,WSDL version 423,2013-04-30 18:27:00,
2013-04-30 13:32:00,83.5,56.5,29.80,SW,214,8.3,19.2,40,0.00,,,0.00,WSDL version 423,2013-04-30 18:32:00,
2013-04-30 13:37:00,83.6,56.3,29.80,South,174,8.6,10.3,40,0.00,,,0.00,WSDL version 423,2013-04-30 18:37:00,
2013-04-30 13:42:00,83.5,56.4,29.80,SW,218,9.1,10.7,40,0.00,,,0.00,WSDL version 423,2013-04-30 18:42:00,
2013-04-30 13:47:00,83.5,56.4,29.80,SSW,197,9.9,17.4,39,0.00,,,0.00,WSDL version 423,2013-04-30 18:47:00,
2013-04-30 13:52:00,83.5,56.8,29.80,SSW,203,8.4,17.4,39,0.00,,,0.00,WSDL version 423,2013-04-30 18:52:00,
2013-04-30 13:57:00,83.5,54.3,29.80,SSW,203,10.3,19.2,35,0.00,,,0.00,WSDL version 423,2013-04-30 18:57:00,
2013-04-30 14:02:00,83.5,53.2,29.80,SW,216,9.4,19.2,35,0.00,,,0.00,WSDL version 423,2013-04-30 19:02:00,
2013-04-30 14:07:00,83.4,52.9,29.80,SSW,203,9.1,17.7,34,0.00,,,0.00,WSDL version 423,2013-04-30 19:07:00,
2013-04-30 14:12:00,83.3,52.8,29.80,SSW,203,9.5,12.5,35,0.00,,,0.00,WSDL version 423,2013-04-30 19:12:00,
2013-04-30 14:17:00,83.4,53.1,29.80,SW,230,9.0,13.2,36,0.00,,,0.00,WSDL version 423,2013-04-30 19:17:00,
2013-04-30 14:22:00,83.5,53.8,29.80,SSW,203,8.9,13.2,36,0.00,,,0.00,WSDL version 423,2013-04-30 19:22:00,
2013-04-30 14:27:00,83.4,53.5,29.80,SSW,200,9.9,15.4,35,0.00,,,0.00,WSDL version 423,2013-04-30 19:27:00,
2013-04-30 14:32:00,83.3,53.3,29.80,SSW,203,10.0,15.4,36,0.00,,,0.00,WSDL version 423,2013-04-30 19:32:00,
2013-04-30 14:37:00,83.3,53.4,29.80,South,184,7.5,12.3,36,0.00,,,0.00,WSDL version 423,2013-04-30 19:37:00,
2013-04-30 14:42:00,83.2,52.9,29.80,SW,218,8.7,13.0,36,0.00,,,0.00,WSDL version 423,2013-04-30 19:42:00,
2013-04-30 14:47:00,83.3,53.2,29.80,SW,218,7.8,13.0,36,0.00,,,0.00,WSDL version 423,2013-04-30 19:47:00,
2013-04-30 14:52:00,83.3,53.6,29.80,SSW,208,7.3,10.7,36,0.00,,,0.00,WSDL version 423,2013-04-30 19:52:00,
2013-04-30 14:57:00,83.3,53.4,29.80,SW,231,7.4,10.7,36,0.00,,,0.00,WSDL version 423,2013-04-30 19:57:00,
2013-04-30 15:02:00,83.3,53.4,29.80,SSW,203,6.8,10.7,36,0.00,,,0.00,WSDL version 423,2013-04-30 20:02:00,
2013-04-30 15:07:00,83.1,53.9,29.80,SW,216,8.5,13.0,37,0.00,,,0.00,WSDL version 423,2013-04-30 20:07:00,
2013-04-30 15:12:00,83.1,54.2,29.80,SSW,210,6.3,13.0,37,0.00,,,0.00,WSDL version 423,2013-04-30 20:12:00,
2013-04-30 15:17:00,83.1,54.3,29.80,South,188,7.0,10.5,38,0.00,,,0.00,WSDL version 423,2013-04-30 20:17:00,
2013-04-30 15:22:00,83.1,53.9,29.80,SW,219,8.0,12.1,37,0.00,,,0.00,WSDL version 423,2013-04-30 20:22:00,
2013-04-30 15:27:00,83.1,53.7,29.77,SW,214,8.6,13.2,36,0.00,,,0.00,WSDL version 423,2013-04-30 20:27:00,
2013-04-30 15:32:00,83.1,53.4,29.77,SSW,203,9.1,13.2,36,0.00,,,0.00,WSDL version 423,2013-04-30 20:32:00,
2013-04-30 15:37:00,83.0,53.2,29.77,SSW,212,9.8,12.1,36,0.00,,,0.00,WSDL version 423,2013-04-30 20:37:00,
2013-04-30 15:42:00,82.9,53.2,29.80,SW,225,6.5,12.1,36,0.00,,,0.00,WSDL version 423,2013-04-30 20:42:00,
2013-04-30 15:47:00,82.9,53.3,29.80,SW,214,7.7,12.5,36,0.00,,,0.00,WSDL version 423,2013-04-30 20:47:00,
2013-04-30 15:52:00,82.9,52.8,29.80,South,174,11.5,19.7,35,0.00,,,0.00,WSDL version 423,2013-04-30 20:52:00,
2013-04-30 15:57:00,83.1,52.0,29.77,South,191,10.7,19.7,34,0.00,,,0.00,WSDL version 423,2013-04-30 20:57:00,
2013-04-30 16:02:00,82.9,52.0,29.77,South,191,10.1,15.4,34,0.00,,,0.00,WSDL version 423,2013-04-30 21:02:00,
2013-04-30 16:07:00,82.9,51.7,29.77,SSW,203,8.1,15.4,34,0.00,,,0.00,WSDL version 423,2013-04-30 21:07:00,
2013-04-30 16:12:00,82.9,50.3,29.80,South,191,11.0,16.3,32,0.00,,,0.00,WSDL version 423,2013-04-30 21:12:00,
2013-04-30 16:17:00,83.0,49.1,29.80,SSW,203,9.1,18.6,31,0.00,,,0.00,WSDL version 423,2013-04-30 21:17:00,
2013-04-30 16:22:00,83.1,49.0,29.80,South,191,13.0,19.5,30,0.00,,,0.00,WSDL version 423,2013-04-30 21:22:00,
2013-04-30 16:27:00,83.0,49.3,29.80,South,173,10.0,19.5,31,0.00,,,0.00,WSDL version 423,2013-04-30 21:27:00,
2013-04-30 16:32:00,83.1,49.6,29.80,South,173,11.8,17.0,32,0.00,,,0.00,WSDL version 423,2013-04-30 21:32:00,
2013-04-30 16:37:00,83.0,50.2,29.80,South,174,12.1,17.7,32,0.00,,,0.00,WSDL version 423,2013-04-30 21:37:00,
2013-04-30 16:42:00,82.9,49.7,29.80,South,191,11.6,17.7,31,0.00,,,0.00,WSDL version 423,2013-04-30 21:42:00,
2013-04-30 16:47:00,82.9,49.4,29.80,SE,135,11.6,17.4,31,0.00,,,0.00,WSDL version 423,2013-04-30 21:47:00,
2013-04-30 16:52:00,82.6,48.9,29.80,South,174,10.3,15.4,31,0.00,,,0.00,WSDL version 423,2013-04-30 21:52:00,
2013-04-30 16:57:00,82.5,48.9,29.80,South,180,12.8,15.4,31,0.00,,,0.00,WSDL version 423,2013-04-30 21:57:00,
2013-04-30 17:02:00,82.6,49.7,29.80,SSW,203,11.9,22.1,33,0.00,,,0.00,WSDL version 423,2013-04-30 22:02:00,
2013-04-30 17:07:00,82.6,51.1,29.80,South,191,10.3,22.1,34,0.00,,,0.00,WSDL version 423,2013-04-30 22:07:00,
2013-04-30 17:12:00,82.4,51.1,29.80,SSW,208,10.2,19.2,34,0.00,,,0.00,WSDL version 423,2013-04-30 22:12:00,
2013-04-30 17:17:00,82.3,50.5,29.80,South,186,11.3,19.2,32,0.00,,,0.00,WSDL version 423,2013-04-30 22:17:00,
2013-04-30 17:22:00,82.2,49.0,29.80,SSW,197,11.8,20.1,31,0.00,,,0.00,WSDL version 423,2013-04-30 22:22:00,
2013-04-30 17:27:00,82.2,48.9,29.80,South,188,10.6,21.9,31,0.00,,,0.00,WSDL version 423,2013-04-30 22:27:00,
2013-04-30 17:32:00,82.0,48.5,29.80,SSW,203,9.8,21.9,30,0.00,,,0.00,WSDL version 423,2013-04-30 22:32:00,
2013-04-30 17:37:00,82.0,48.4,29.80,SSW,197,9.3,15.2,31,0.00,,,0.00,WSDL version 423,2013-04-30 22:37:00,
2013-04-30 17:42:00,82.0,49.3,29.80,SSW,208,7.7,15.7,33,0.00,,,0.00,WSDL version 423,2013-04-30 22:42:00,
2013-04-30 17:47:00,82.0,51.1,29.80,South,180,6.9,15.7,35,0.00,,,0.00,WSDL version 423,2013-04-30 22:47:00,
2013-04-30 17:52:00,81.9,51.6,29.80,South,189,9.6,13.0,35,0.00,,,0.00,WSDL version 423,2013-04-30 22:52:00,
2013-04-30 17:57:00,81.7,51.9,29.80,SSW,203,10.5,14.5,36,0.00,,,0.00,WSDL version 423,2013-04-30 22:57:00,
2013-04-30 18:02:00,81.5,52.0,29.80,South,176,9.2,14.5,36,0.00,,,0.00,WSDL version 423,2013-04-30 23:02:00,
2013-04-30 18:08:00,81.3,51.7,29.80,South,180,11.4,13.0,36,0.00,,,0.00,WSDL version 423,2013-04-30 23:08:00,
2013-04-30 18:13:00,81.1,51.6,29.83,ESE,113,7.8,13.0,36,0.00,,,0.00,WSDL version 423,2013-04-30 23:13:00,
2013-04-30 18:18:00,81.0,51.5,29.83,South,169,8.9,10.1,36,0.00,,,0.00,WSDL version 423,2013-04-30 23:18:00,
2013-04-30 18:23:00,80.9,51.3,29.83,SSW,197,8.9,12.1,36,0.00,,,0.00,WSDL version 423,2013-04-30 23:23:00,
2013-04-30 18:28:00,80.8,50.8,29.80,South,191,10.0,14.8,35,0.00,,,0.00,WSDL version 423,2013-04-30 23:28:00,
2013-04-30 18:33:00,80.7,51.0,29.80,South,180,11.9,15.2,36,0.00,,,0.00,WSDL version 423,2013-04-30 23:33:00,
2013-04-30 18:38:00,80.6,51.2,29.80,South,190,9.7,15.2,36,0.00,,,0.00,WSDL version 423,2013-04-30 23:38:00,
2013-04-30 18:43:00,80.4,51.6,29.83,South,169,9.6,18.6,37,0.00,,,0.00,WSDL version 423,2013-04-30 23:43:00,
2013-04-30 18:48:00,80.1,51.5,29.83,SSW,198,6.7,18.6,37,0.00,,,0.00,WSDL version 423,2013-04-30 23:48:00,
2013-04-30 18:53:00,79.9,51.3,29.83,South,180,9.2,17.4,37,0.00,,,0.00,WSDL version 423,2013-04-30 23:53:00,
2013-04-30 18:58:00,79.7,50.7,29.83,South,173,10.4,15.2,37,0.00,,,0.00,WSDL version 423,2013-04-30 23:58:00,
2013-04-30 19:03:00,79.6,51.1,29.83,SSE,165,9.2,15.2,37,0.00,,,0.00,WSDL version 423,2013-05-01 00:03:00,
2013-04-30 19:08:00,79.3,50.8,29.83,SSW,203,8.1,13.2,37,0.00,,,0.00,WSDL version 423,2013-05-01 00:08:00,
2013-04-30 19:13:00,79.0,50.2,29.83,SSW,203,7.4,12.5,36,0.00,,,0.00,WSDL version 423,2013-05-01 00:13:00,
2013-04-30 19:18:00,79.0,49.8,29.83,South,173,6.1,12.5,36,0.00,,,0.00,WSDL version 423,2013-05-01 00:18:00,
2013-04-30 19:23:00,78.6,49.5,29.83,South,183,7.1,11.9,36,0.00,,,0.00,WSDL version 423,2013-05-01 00:23:00,
2013-04-30 19:28:00,78.4,49.2,29.83,South,174,6.7,10.7,36,0.00,,,0.00,WSDL version 423,2013-05-01 00:28:00,
2013-04-30 19:33:00,78.2,49.1,29.83,South,169,6.9,10.1,36,0.00,,,0.00,WSDL version 423,2013-05-01 00:33:00,
2013-04-30 19:38:00,78.0,49.1,29.83,South,180,7.2,11.0,37,0.00,,,0.00,WSDL version 423,2013-05-01 00:38:00,
2013-04-30 19:43:00,77.7,49.4,29.83,SSE,158,5.5,11.0,37,0.00,,,0.00,WSDL version 423,2013-05-01 00:43:00,
2013-04-30 19:48:00,77.5,49.2,29.83,South,171,6.3,12.8,37,0.00,,,0.00,WSDL version 423,2013-05-01 00:48:00,
2013-04-30 19:53:00,77.3,49.3,29.83,SSW,210,5.4,12.8,38,0.00,,,0.00,WSDL version 423,2013-05-01 00:53:00,
2013-04-30 19:58:00,77.1,49.6,29.85,South,185,7.0,11.0,38,0.00,,,0.00,WSDL version 423,2013-05-01 00:58:00,
2013-04-30 20:03:00,76.9,49.9,29.85,South,173,5.1,10.7,39,0.00,,,0.00,WSDL version 423,2013-05-01 01:03:00,
2013-04-30 20:08:00,76.6,50.4,29.85,South,173,6.5,7.6,40,0.00,,,0.00,WSDL version 423,2013-05-01 01:08:00,
2013-04-30 20:13:00,76.4,50.4,29.85,SSW,203,6.9,7.6,41,0.00,,,0.00,WSDL version 423,2013-05-01 01:13:00,
2013-04-30 20:18:00,76.2,50.8,29.85,South,169,6.1,7.8,41,0.00,,,0.00,WSDL version 423,2013-05-01 01:18:00,
2013-04-30 20:23:00,76.0,50.6,29.85,South,174,5.4,10.1,41,0.00,,,0.00,WSDL version 423,2013-05-01 01:23:00,
2013-04-30 20:28:00,75.9,50.5,29.85,South,173,6.3,10.1,41,0.00,,,0.00,WSDL version 423,2013-05-01 01:28:00,
2013-04-30 20:33:00,75.7,50.6,29.85,South,169,7.3,11.0,42,0.00,,,0.00,WSDL version 423,2013-05-01 01:33:00,
2013-04-30 20:38:00,75.6,51.0,29.85,South,174,6.6,13.9,43,0.00,,,0.00,WSDL version 423,2013-05-01 01:38:00,
2013-04-30 20:43:00,75.5,52.1,29.85,SSW,203,6.3,13.9,44,0.00,,,0.00,WSDL version 423,2013-05-01 01:43:00,
2013-04-30 20:48:00,75.3,52.7,29.85,SSE,162,7.3,16.3,46,0.00,,,0.00,WSDL version 423,2013-05-01 01:48:00,
2013-04-30 20:53:00,75.2,53.0,29.85,South,189,7.5,16.3,46,0.00,,,0.00,WSDL version 423,2013-05-01 01:53:00,
2013-04-30 20:58:00,75.0,53.4,29.85,SSE,164,7.5,11.0,47,0.00,,,0.00,WSDL version 423,2013-05-01 01:58:00,
2013-04-30 21:03:00,75.0,53.4,29.85,South,173,9.7,14.5,47,0.00,,,0.00,WSDL version 423,2013-05-01 02:03:00,
2013-04-30 21:08:00,74.8,53.3,29.85,South,180,8.4,15.4,47,0.00,,,0.00,WSDL version 423,2013-05-01 02:08:00,
2013-04-30 21:13:00,74.8,53.3,29.85,SSE,167,8.4,15.4,47,0.00,,,0.00,WSDL version 423,2013-05-01 02:13:00,
2013-04-30 21:18:00,74.6,53.1,29.85,South,180,7.7,14.5,47,0.00,,,0.00,WSDL version 423,2013-05-01 02:18:00,
2013-04-30 21:23:00,74.5,53.0,29.85,South,171,7.7,13.2,47,0.00,,,0.00,WSDL version 423,2013-05-01 02:23:00,
2013-04-30 21:28:00,74.5,53.0,29.88,South,176,7.9,13.2,47,0.00,,,0.00,WSDL version 423,2013-05-01 02:28:00,
2013-04-30 21:33:00,74.3,52.8,29.88,South,177,8.2,12.5,47,0.00,,,0.00,WSDL version 423,2013-05-01 02:33:00,
2013-04-30 21:38:00,74.2,52.4,29.88,South,180,4.7,12.5,47,0.00,,,0.00,WSDL version 423,2013-05-01 02:38:00,
2013-04-30 21:43:00,74.0,52.5,29.88,South,176,9.3,13.0,47,0.00,,,0.00,WSDL version 423,2013-05-01 02:43:00,
2013-04-30 21:48:00,73.9,52.5,29.88,South,172,7.9,13.0,47,0.00,,,0.00,WSDL version 423,2013-05-01 02:48:00,
2013-04-30 21:53:00,73.8,52.3,29.88,South,174,6.2,12.3,47,0.00,,,0.00,WSDL version 423,2013-05-01 02:53:00,
2013-04-30 21:58:00,73.8,52.3,29.88,South,180,8.1,11.0,47,0.00,,,0.00,WSDL version 423,2013-05-01 02:58:00,
2013-04-30 22:03:00,73.6,52.2,29.88,SSW,198,5.1,11.0,47,0.00,,,0.00,WSDL version 423,2013-05-01 03:03:00,
2013-04-30 22:08:00,73.4,52.0,29.88,SSE,158,6.4,12.8,47,0.00,,,0.00,WSDL version 423,2013-05-01 03:08:00,
2013-04-30 22:13:00,73.3,52.0,29.88,South,174,7.7,12.8,48,0.00,,,0.00,WSDL version 423,2013-05-01 03:13:00,
2013-04-30 22:18:00,73.2,52.4,29.88,South,169,7.0,10.7,48,0.00,,,0.00,WSDL version 423,2013-05-01 03:18:00,
2013-04-30 22:23:00,73.0,52.2,29.88,South,173,4.9,10.5,48,0.00,,,0.00,WSDL version 423,2013-05-01 03:23:00,
2013-04-30 22:28:00,72.9,52.1,29.88,South,171,6.8,11.0,48,0.00,,,0.00,WSDL version 423,2013-05-01 03:28:00,
2013-04-30 22:33:00,72.9,52.0,29.88,South,185,7.4,11.0,48,0.00,,,0.00,WSDL version 423,2013-05-01 03:33:00,
2013-04-30 22:38:00,72.8,51.9,29.88,South,188,4.8,10.1,48,0.00,,,0.00,WSDL version 423,2013-05-01 03:38:00,
2013-04-30 22:43:00,72.6,52.2,29.88,South,170,5.1,11.0,49,0.00,,,0.00,WSDL version 423,2013-05-01 03:43:00,
2013-04-30 22:48:00,72.5,52.3,29.88,SSE,158,8.7,13.4,49,0.00,,,0.00,WSDL version 423,2013-05-01 03:48:00,
2013-04-30 22:53:00,72.5,52.3,29.88,SSW,203,6.2,13.4,49,0.00,,,0.00,WSDL version 423,2013-05-01 03:53:00,
2013-04-30 22:58:00,72.4,52.4,29.88,South,174,8.1,12.3,50,0.00,,,0.00,WSDL version 423,2013-05-01 03:58:00,
2013-04-30 23:01:00,72.3,52.7,29.88,South,184,7.0,12.3,50,0.00,,,0.00,WSDL version 423,2013-05-01 04:01:00,
2013-04-30 23:02:00,72.3,52.7,29.88,SSW,194,6.8,12.3,50,0.00,,,0.00,WSDL version 423,2013-05-01 04:02:00,
2013-04-30 23:04:00,72.3,52.6,29.88,South,171,6.8,12.3,50,0.00,,,0.00,WSDL version 423,2013-05-01 04:04:00,
2013-04-30 23:05:00,72.2,52.6,29.88,South,174,6.9,10.7,50,0.00,,,0.00,WSDL version 423,2013-05-01 04:05:00,
2013-04-30 23:10:00,72.1,52.5,29.88,South,180,7.2,14.5,50,0.00,,,0.00,WSDL version 423,2013-05-01 04:10:00,
2013-04-30 23:15:00,72.1,52.7,29.88,South,188,10.1,14.5,51,0.00,,,0.00,WSDL version 423,2013-05-01 04:15:00,
2013-04-30 23:20:00,72.0,52.8,29.88,South,180,6.5,15.2,51,0.00,,,0.00,WSDL version 423,2013-05-01 04:20:00,
2013-04-30 23:25:00,71.9,52.8,29.88,South,191,7.5,15.2,51,0.00,,,0.00,WSDL version 423,2013-05-01 04:25:00,
2013-04-30 23:30:00,71.8,52.7,29.88,South,173,8.6,14.5,51,0.00,,,0.00,WSDL version 423,2013-05-01 04:30:00,
2013-04-30 23:35:00,71.6,52.9,29.88,South,185,6.7,14.5,52,0.00,,,0.00,WSDL version 423,2013-05-01 04:35:00,
2013-04-30 23:40:00,71.4,53.0,29.91,SSW,196,7.6,14.3,53,0.00,,,0.00,WSDL version 423,2013-05-01 04:40:00,
2013-04-30 23:45:00,71.1,53.2,29.91,SSW,194,6.8,14.3,53,0.00,,,0.00,WSDL version 423,2013-05-01 04:45:00,
2013-04-30 23:50:00,71.1,53.1,29.91,South,186,8.2,12.5,53,0.00,,,0.00,WSDL version 423,2013-05-01 04:50:00,
2013-04-30 23:55:00,70.9,53.3,29.91,South,180,6.3,12.3,54,0.00,,,0.00,WSDL version 423,2013-05-01 04:55:00,